"Pseudo-MPEC" for Solar Orbiter Centaur

Created 2020 Feb 14 15:47:44 UT using Find_Orb

Click here for an explanation of pseudo-MPECs

Pseudo-MPEC for the spacecraft launched by this booster

Other artsat pseudo-MPECS on this site

 
 Astrometry: 
     SolCent  C2020 02 11.78206003 35 51.47 +28 10 03.8          17.3 G      C95
     SolCent  C2020 02 11.78332203 35 50.90 +28 10 03.6          17.5 G      C95
     SolCent  C2020 02 11.78458303 35 50.63 +28 10 04.2          17.4 G      C95
     SolCent  C2020 02 11.78585603 35 50.17 +28 10 04.1          18.1 G      C95
     SolCent  C2020 02 11.78963003 35 48.62 +28 10 04.2          17.9 G      C95
     SolCent  C2020 02 11.79089103 35 48.07 +28 10 04.1          17.5 G      C95
     SolCent  C2020 02 11.79219903 35 47.70 +28 10 04.0          17.3 G      C95
     SolCent  C2020 02 11.79346103 35 47.24 +28 10 04.2          17.2 G      C95
     SolCent  C2020 02 11.79475703 35 46.61 +28 10 03.8          17.4 G      C95
     SolCent  C2020 02 11.79599503 35 46.30 +28 10 03.6          17.4 G      C95
     SolCent  C2020 02 11.89329903 35 21.49 +28 08 24.0          17.3 G      C95
     SolCent  C2020 02 11.89453703 35 21.32 +28 08 21.2          17.0 G      C95
     SolCent  C2020 02 11.89583303 35 21.17 +28 08 19.8          17.2 G      C95
     SolCent  C2020 02 11.89709503 35 20.95 +28 08 16.9          17.0 G      C95
     SolCent  C2020 02 11.89833303 35 20.85 +28 08 14.6          17.5 G      C95
     SolCent  C2020 02 11.89957203 35 20.74 +28 08 13.2          17.1 G      C95
     SolCent  C2020 02 11.90083303 35 20.60 +28 08 10.6          17.0 G      C95
     SolCent  C2020 02 11.90209503 35 20.48 +28 08 07.9          17.4 G      C95
     SolCent  C2020 02 11.90335603 35 20.31 +28 08 06.1          17.2 G      C95
     SolCent  C2020 02 11.90459503 35 20.18 +28 08 03.7          17.1 G      C95
     SolCent  C2020 02 11.90589103 35 20.04 +28 08 01.0          17.1 G      C95
     SolCent  C2020 02 11.90710603 35 19.95 +28 07 59.2          17.4 G      C95
     SolO2    C2020 02 11.95870003 35 14.547+28 09 42.68         17.5 G      Z84
     SolO2    C2020 02 11.95947403 35 14.542+28 09 40.69         17.9 G      Z84
     SolO2    C2020 02 11.96024803 35 14.525+28 09 39.19         18.1 G      Z84
     SolO2    C2020 02 11.96102203 35 14.503+28 09 37.37         17.9 G      Z84
     SolO2    C2020 02 11.96179603 35 14.507+28 09 35.46         17.4 G      Z84
     SolO2    C2020 02 11.96257003 35 14.508+28 09 33.36         17.3 G      Z84
     SolO2    C2020 02 12.00581303 35 17.504+28 07 46.06         17.5 G      Z84
     SolO2    C2020 02 12.00635503 35 17.617+28 07 44.55         17.8 G      Z84
     SolO2    C2020 02 12.00689803 35 17.655+28 07 43.28         17.7 G      Z84
     SolO2    C2020 02 12.00744003 35 17.769+28 07 41.88         18.1 G      Z84
     SolO2    C2020 02 12.00798203 35 17.809+28 07 40.57         18.0 G      Z84
     SolO2    C2020 02 12.00852503 35 17.912+28 07 39.27         17.1 G      Z84
     SolO2    C2020 02 12.00906703 35 17.947+28 07 38.05         18.7 G      Z84
     SolO2    C2020 02 12.00960903 35 18.077+28 07 36.62         17.4 G      Z84
     SolO2    C2020 02 12.01015203 35 18.244+28 07 35.54         18.0 G      Z84
     SolO2    C2020 02 12.01069503 35 18.217+28 07 33.91         17.6 G      Z84
     SolO2    C2020 02 12.01123703 35 18.394+28 07 32.30         18.0 G      Z84
     SolO2    C2020 02 12.01177903 35 18.362+28 07 31.23         18.3 G      Z84
     SolO2    C2020 02 12.01232203 35 18.532+28 07 29.79         17.2 G      Z84
     SolO2    C2020 02 12.01286503 35 18.593+28 07 28.47         18.9 G      Z84
     SolO2    C2020 02 12.01340703 35 18.690+28 07 27.19         17.2 G      Z84
     SolO2    C2020 02 12.01394903 35 18.807+28 07 26.11         18.3 G      Z84
     SolO2    C2020 02 12.01449203 35 18.852+28 07 24.61         17.6 G      Z84
     SolO2    C2020 02 12.01503303 35 18.995+28 07 23.26         17.6 G      Z84
     SolO2    C2020 02 12.01557503 35 19.018+28 07 21.91         17.9 G      Z84
     SolO2    C2020 02 12.01611803 35 19.172+28 07 20.48         17.7 G      Z84
     SolO2    C2020 02 12.01666103 35 19.240+28 07 19.46         18.3 G      Z84
     SolO2    C2020 02 12.01720403 35 19.355+28 07 17.90         17.2 G      Z84
     SolO2    C2020 02 12.01774503 35 19.504+28 07 16.46         18.1 G      Z84
     SolO2    C2020 02 12.01828703 35 19.536+28 07 15.20         17.2 G      Z84
     SolCent KC2020 02 12.73773 03 37 44.48 +28 21 14.1          19.1 RU     470
     SolCent KC2020 02 12.73887 03 37 44.18 +28 21 14.5          19.0 RU     470
     SolCent KC2020 02 12.74002 03 37 43.84 +28 21 14.3          19.1 RU     470
     SolCent KC2020 02 12.84351503 37 23.38 +28 17 48.4          18.5 Gq     G34
     SolCent KC2020 02 12.84466303 37 23.19 +28 17 47.4          18.8 Gq     G34
     SolCent KC2020 02 12.84581203 37 23.03 +28 17 47.2          17.9 Gq     G34
     SolCent KC2020 02 12.84782103 37 22.76 +28 17 44.6          18.3 Gq     G34
     SolCent KC2020 02 12.84997403 37 22.50 +28 17 42.4          18.3 Gq     G34
     SolCent KC2020 02 12.85313203 37 22.07 +28 17 39.2          18.3 Gq     G34
     SolCent KC2020 02 12.85528403 37 21.77 +28 17 37.6          17.9 Gq     G34
     SolCent KC2020 02 12.85729403 37 21.56 +28 17 34.6          18.3 Gq     G34
     SolCent KC2020 02 12.85930303 37 21.27 +28 17 33.0          18.3 Gq     G34
     SolCent KC2020 02 12.86160003 37 21.06 +28 17 30.4          18.4 Gq     G34
     SolCent KC2020 02 12.96758 03 37 13.75 +28 16 32.2                V     204
     SolCent KC2020 02 12.97245 03 37 13.99 +28 16 24.6          18.7 GV     204
     SolCent KC2020 02 12.98138 03 37 14.57 +28 16 10.6                V     204
     SolCent  CK200213:18514891 054.63700   +28.39710            19.1 GV     J95
     SolCent  CK200213:18562522 054.63464   +28.39706            19.1 GV     J95
     SolCent  CK200213:19005119 054.63209   +28.39698            19.4 GV     J95
     SolCent  CK200213:19053018 054.62973   +28.39689            19.3 GV     J95
     SolCent KC2020 02 13.87117303 38 18.59 +28 23 22.2                V     J69
     SolCent KC2020 02 13.88724703 38 16.61 +28 23 10.7          18.2 GV     J69
     SolCent KC2020 02 13.89036803 38 16.26 +28 23 08.1          18.6 GV     J69
     SolCent KC2020 02 13.89349003 38 15.89 +28 23 05.5          18.8 GV     J69

Station data:
(204) Schiaparelli Observatory  (N45.867933 E8.770800)  Italy.  Observer L.
   Buzzi. 0.84-m f/3.5 reflector + CCD.
(470) Ceccano  (N41.570282 E13.327560)  Italy.  Observer G. Masi. 0.43-m
   f/6.8 astrograph + CCD.
(C95) SATINO Remote Observatory, Haute Provence  (N43.932042 E5.712390)
   France.  Observer J. Jahn. 0.60-m f/3.2 Newtonian reflector + CCD.
(G34) Oberfrauendorf  (N50.860289 E13.701403)  Germany.  Observer T.Felber.
   0.25-m f/10 Schmidt-Cassegrain + CCD + f/6.3 focal reducer.
(J69) North Observatory, Clanfield  (N50.939017 W1.019656)  UK.  Observer D.
   Briggs. 0.41-m f/4.5 Newtonian reflector + CCD.
(J95) Great Shefford  (N51.474969 W1.447003)  UK.  Observer P. Birtwhistle.
(Z84) Calar Alto-Schmidt  (N37.223981 W2.548143)  Spain.  Observer E. Schwab.
   Measurers E. Schwab, D. Koschny, M. Micheli. 0.8-m f/3 Schmidt + CCD.

Orbital elements:  Solar Orbiter Centaur (geocentric escape) 
   Perigee 2020 Feb 10.205044 +/- 0.000472 TT =  4:55:15 (JD 2458889.705044)
Epoch 2020 Feb 10.2 TT = JDT 2458889.7                        Find_Orb
q  6576.395734 +/- 4.43             (J2000 equator)
H   26.2  G 0.15                    Peri.  287.217114 +/- 0.023
                                    Node     0.860393 +/- 0.017
e   1.49498409 +/- 0.000488         Incl.   33.883491 +/- 0.0020
From 76 observations 2020 Feb. 11-13; mean residual 0".414

Orbital elements:  Solar Orbiter Centaur (heliocentric) 
   Perihelion 2020 Jun 15.028120 +/- 0.0104 TT =  0:40:29 (JD 2459015.528120)
Epoch 2020 Feb 20.0 TT = JDT 2458899.5   Earth MOID: 0.0001   Ve: 0.0015
M 184.397599405 +/- 0.0007          (J2000 ecliptic)          Find_Orb
n   1.513446915 +/- 0.000129        Peri.  185.751084 +/- 0.0008
a   0.751319373 +/- 4.27e-5         Node   140.578385 +/- 0.00050
e   0.31613377 +/- 7.51e-5          Incl.    1.943207 +/- 0.00059
P   0.65/237.86d           H 26.2   G  0.15   U  6.7
q 0.513801940 +/- 8.56e-5    Q 0.988836805 +/- 2.22e-7
From 76 observations 2020 Feb. 11-13; mean residual 0".414

Orbital elements:  Solar Orbiter Centaur (Venus flyby) 
   Perivenus 2020 Dec 27.091265 +/- 0.0242 TT =  2:11:25 (JD 2459210.591265)
Epoch 2020 Dec 27.0 TT = JDT 2459210.5                        Find_Orb
q   0.007125170 +/- 0.000418        (J2000 ecliptic)
H   26.2  G 0.15                    Peri.   54.916509 +/- 1.9
                                    Node   264.392516 +/- 1.9
e 469.77827134 +/- 29.4             Incl.   12.405582 +/- 0.6
From 76 observations 2020 Feb. 11-13; mean residual 0".414
Residuals in arcseconds: 
200211 C95 .325- .044-    200211 Z84 .122+ .089+    200212 470 .323- .038-
200211 C95 1.52- .403-    200211 Z84 .192+ .126-    200212 470 .363+ .248+
200211 C95 1.22+ .073+    200212 Z84 .060+ .103+    200212 470 .553+ .046-
200211 C95 1.48+ .117-    200212 Z84 .525+ .056-    200212 G34 .065- .144-
200211 C95 .398- .076-    200212 Z84 .016- .027+    200212 G34 .398- .078-
200211 C95 1.51- .126-    200212 Z84 .437+ .023-    200212 G34 .359- .798+
200211 C95 .053- .139-    200212 Z84 .103- .016+    200212 G34 .224- .105+
200211 C95 .040- .180+    200212 Z84 .177+ .067+    200212 G34 .219+ .017-
200211 C95 2.15- .062-    200212 Z84 .455- .195+    200212 G34 .057+ .107-
200211 C95 .332- .079-    200212 Z84 .158+ .112+    200212 G34 .261- .453+
200211 C95 .210+ .257+    200212 Z84 1.25+ .381+    200212 G34 .283+ .500-
200211 C95 .057+ .412-    200212 Z84 .247- .099+    200212 G34 .314- .025-
200211 C95 .203+ .435+    200212 Z84 .949+ .165-    200212 G34 .505+ .220-
